Preview of NWS' New Version of Forecast
This preview is not operational and should not be used for support decisions.

Regional Weather Roundup (RWR)

Issued by National Weather Service (NWS)

                            
000
ASUS45 KBOI 190810
RWRID 

IDAHO REGIONAL WEATHER ROUNDUP
NATIONAL WEATHER SERVICE BOISE ID
200 AM MDT TUE MAR 19 2019

NOTE: "FAIR" INDICATES FEW OR NO CLOUDS BELOW 12000 FEET
WITH NO SIGNIFICANT WEATHER AND/OR OBSTRUCTIONS TO VISIBILITY

IDZ012-014-190900-
SOUTHWEST IDAHO

  
CITY           SKY/WX    TMP DP  RH WIND       PRES   REMARKS
BOISE          CLEAR     46  24  42 SE16      30.23R                  
CALDWELL       CLEAR     32  23  69 NE3       30.24R                  
MOUNTAIN HOME  CLEAR     33  27  79 NE8       30.23R WCI  25          
$$

IDZ016-017-190900-
SOUTHCENTRAL IDAHO

  
CITY           SKY/WX    TMP DP  RH WIND       PRES   REMARKS
BURLEY         CLEAR     30  24  78 NE3       30.23S                  
JEROME         NOT AVBL                                               
TWIN FALLS     CLEAR     23  18  81 E6        30.23R WCI  16          
$$

IDZ019>023-190900-
SOUTHEAST IDAHO

  
CITY           SKY/WX    TMP DP  RH WIND       PRES   REMARKS
IDAHO FALLS    CLEAR     29  23  78 NE7       30.26F WCI  22          
POCATELLO      CLEAR     31  23  72 N5        30.26S WCI  26          
REXBURG        CLEAR     28  20  71 N5        30.26S WCI  23          
$$

IDZ006-010-011-018-031-032-190900-
CENTRAL IDAHO MOUNTAINS

  
CITY           SKY/WX    TMP DP  RH WIND       PRES   REMARKS
MCCALL         CLEAR     24  19  81 NE5       30.24R WCI  18          
HAILEY         CLEAR     28  21  74 NW9       30.29S WCI  20          
STANLEY          N/A     14   6  70 CALM      30.31R                  
SALMON         CLEAR     26  22  84 CALM      30.33S                  
CHALLIS        CLEAR     30  20  66 CALM      30.29S                  
$$

IDZ002-004-006-007-026-190900-
NORTHERN IDAHO

  
CITY           SKY/WX    TMP DP  RH WIND       PRES   REMARKS
LEWISTON       CLEAR     39  29  67 CALM      30.25F                  
LOWELL         NOT AVBL                                               
COEUR D'ALENE  CLEAR     33  26  75 NE12      30.27R WCI  24          
MULLAN PASS    CLEAR     38   9  30 SE10      30.27F WCI  31          
$$